Savannah, GA

6:28 AM EDT on March 29, 2017 (GMT -0400)
Savannah International

Weather History for KSAV - December, 2012

Change the Weather History Date:

Monday, December 10, 2012

  Actual Average Record
Temperature  
Mean Temperature 71 °F 53 °F  
Max Temperature 80 °F 64 °F 82 °F (1972)
Min Temperature 62 °F 42 °F 23 °F (1968)
Degree Days  
Heating Degree Days 0 13  
Month to date heating degree days 28 117  
Since 1 July heating degree days 361 384  
Cooling Degree Days 6 0  
Month to date cooling degree days 6 3  
Year to date cooling degree days 2670 2452  
Growing Degree Days 21 (Base 50)    
Moisture  
Dew Point 61 °F    
Average Humidity 71    
Maximum Humidity 100    
Minimum Humidity 42    
Precipitation  
Precipitation 0.00 in 0.09 in 1.42 in (1969)
Month to date precipitation T 0.88  
Year to date precipitation 38.30 45.89  
Snow  
Snow 0.00 in 0.00 in - ()
Month to date snowfall 0.0  
Since 1 July snowfall 0.0 0.0  
Snow Depth 0.00 in    
Sea Level Pressure  
Sea Level Pressure 29.91 in    
Wind  
Wind Speed 7 mph (SSW)    
Max Wind Speed 15 mph    
Max Gust Speed 20 mph    
Visibility 5 miles    
Events Fog    
T = Trace of Precipitation, MM = Missing Value Source: NWS Daily Summary

Daily Weather History Graph

Daily Weather History Graph

Search for Another Location

Airport or City:

Trip Planner

Search our weather history database for the weather conditions in past years. The results will help you decide how hot, cold, wet, or windy it might be!

Date:

Astronomy

Dec. 10, 2012 Rise Set
Actual Time 7:15 AM EST 5:20 PM EST
Civil Twilight 6:48 AM EST 5:47 PM EST
Nautical Twilight 6:17 AM EST 6:18 PM EST
Astronomical Twilight 5:47 AM EST 6:47 PM EST
Moon 4:03 AM EST (12/10) 3:03 PM EST (12/10)
Length of Visible Light 10h 59m
Length of Day
10h 05m
Waning Crescent, 10% of the Moon is Illuminated
Dec 10
Waning Crescent
Dec 13
New
Dec 20
First Quarter
Dec 28
Full
Jan 4
Last Quarter

Hourly Weather History & Observations

Time (EST) Temp. Dew Point Humidity Pressure Visibility Wind Dir Wind Speed Gust Speed Precip Events Conditions
12:15 AM 62.6 °F 60.8 °F 94% 30.00 in 5.0 mi WSW 3.5 mph - N/A   Mostly Cloudy
12:23 AM 62.6 °F 60.8 °F 94% 30.00 in 1.0 mi Calm Calm - N/A   Mist
12:41 AM 62.6 °F 62.6 °F 100% 29.99 in 0.2 mi Calm Calm - N/A Fog Fog
12:53 AM 63.0 °F 62.1 °F 97% 29.98 in 0.2 mi South 3.5 mph - N/A Fog Fog
1:21 AM 62.6 °F 62.6 °F 100% 29.98 in 0.5 mi SSW 3.5 mph - N/A Fog Fog
1:53 AM 64.0 °F 63.0 °F 96% 29.97 in 0.5 mi Calm Calm - N/A Fog Fog
2:22 AM 64.4 °F 64.4 °F 100% 29.97 in 1.0 mi SSW 4.6 mph - N/A   Overcast
2:53 AM 64.0 °F 63.0 °F 96% 29.97 in 0.8 mi WSW 4.6 mph - N/A   Mist
3:53 AM 64.0 °F 63.0 °F 96% 29.96 in 0.5 mi SSW 4.6 mph - N/A Fog Fog
4:53 AM 64.0 °F 63.0 °F 96% 29.94 in 0.5 mi SSW 5.8 mph - N/A Fog Fog
5:53 AM 64.0 °F 63.0 °F 96% 29.95 in 0.5 mi SW 6.9 mph - N/A Fog Fog
6:05 AM 64.4 °F 62.6 °F 94% 29.95 in 2.0 mi WSW 8.1 mph - N/A   Overcast
6:39 AM 64.4 °F 62.6 °F 94% 29.95 in 2.5 mi WSW 8.1 mph - N/A   Overcast
6:53 AM 64.0 °F 63.0 °F 96% 29.95 in 2.5 mi SW 5.8 mph - N/A   Overcast
7:14 AM 64.4 °F 62.6 °F 94% 29.95 in 1.5 mi SSW 6.9 mph - N/A   Overcast
7:34 AM 64.4 °F 62.6 °F 94% 29.95 in 1.0 mi SSW 6.9 mph - N/A   Overcast
7:51 AM 64.4 °F 62.6 °F 94% 29.94 in 1.5 mi SW 4.6 mph - N/A   Overcast
7:53 AM 64.0 °F 63.0 °F 96% 29.94 in 1.5 mi SW 5.8 mph - N/A   Overcast
8:13 AM 64.4 °F 62.6 °F 94% 29.95 in 3.0 mi SW 6.9 mph - N/A   Overcast
8:53 AM 64.9 °F 63.0 °F 93% 29.94 in 5.0 mi SSW 8.1 mph - N/A   Overcast
9:53 AM 68.0 °F 62.1 °F 81% 29.94 in 10.0 mi SW 10.4 mph - N/A   Overcast
10:13 AM 69.8 °F 62.6 °F 78% 29.94 in 10.0 mi South 9.2 mph - N/A   Mostly Cloudy
10:36 AM 71.6 °F 60.8 °F 69% 29.94 in 10.0 mi SSW 10.4 mph - N/A   Mostly Cloudy
10:53 AM 71.1 °F 60.1 °F 68% 29.93 in 10.0 mi SW 6.9 mph - N/A   Mostly Cloudy
11:53 AM 73.9 °F 55.9 °F 53% 29.91 in 10.0 mi SW 8.1 mph - N/A   Mostly Cloudy
12:53 PM 77.0 °F 55.0 °F 47% 29.88 in 10.0 mi SW 9.2 mph - N/A   Scattered Clouds
1:53 PM 79.0 °F 55.9 °F 45% 29.85 in 10.0 mi SSW 8.1 mph - N/A   Mostly Cloudy
2:53 PM 78.1 °F 54.0 °F 43% 29.83 in 10.0 mi SW 11.5 mph 18.4 mph N/A   Mostly Cloudy
3:53 PM 78.1 °F 53.1 °F 42% 29.81 in 10.0 mi SSW 8.1 mph - N/A   Scattered Clouds
4:53 PM 75.0 °F 53.1 °F 46% 29.81 in 10.0 mi SSW 9.2 mph - N/A   Mostly Cloudy
5:53 PM 70.0 °F 57.0 °F 63% 29.81 in 10.0 mi SSE 9.2 mph - N/A   Mostly Cloudy
6:53 PM 66.9 °F 59.0 °F 76% 29.81 in 10.0 mi South 8.1 mph - N/A   Partly Cloudy
7:53 PM 66.0 °F 61.0 °F 84% 29.82 in 10.0 mi South 9.2 mph - N/A   Partly Cloudy
8:53 PM 64.9 °F 62.1 °F 90% 29.82 in 10.0 mi South 5.8 mph - N/A   Mostly Cloudy
9:53 PM 64.9 °F 62.1 °F 90% 29.81 in 10.0 mi South 9.2 mph - N/A   Partly Cloudy
10:53 PM 64.9 °F 63.0 °F 93% 29.82 in 10.0 mi SSW 6.9 mph - N/A   Scattered Clouds
11:53 PM 66.0 °F 63.0 °F 90% 29.82 in 10.0 mi SSW 8.1 mph - N/A   Scattered Clouds